www.pogodaiklimat.ru

Погода и климат >> Архив погоды >> Россия >> Самарская область >> Самара


АРХИВ ПОГОДЫ в Самаре

Время (UTC), дата Ветер
(напр.,м/с)
 
Видим.   Явления Облачность Т
(С)
Тd
(С)
f
(%)
Тe
(С)
Тes
(С)
Комфортность P
(гПа)
Po
(гПа)
Тmin
(С)
Tmax
(С)
R
(мм)
R24
(мм)
S
(см)
12 18.05 З 3
{11}
10 км 9/8 600 м
[Cb cap Ac trans]
+17.2 +3.6 40 +17 +18 1009.7 993.3
15 18.05 СЗ 3
{10}
10 км 3/3 600 м
[Sc diur, vesp]
+16.5 +3.1 41 +16 +17 1009.5 993.1 +18.1
18 18.05 С 1 10 км 3/0
[Ac trans Ci fib]
+11.9 +1.0 47 +12 +12 1011.1 994.4
21 18.05 СВ 1 10 км 9/0
[Ac trans Ci fib]
+8.9 -2.5 45 +9 +9 1012.2 995.3
00 19.05 штиль 0 10 км ясно +7.3 +0.6 62 +7 +7 1011.4 994.4
03 19.05 З 2 10 км 9/3 600 м
[Sc Ac trans]
+8.2 +3.4 72 +6 +7 1010.7 993.7 +4.5
06 19.05 СЗ 3 10 км 8/8 600 м
[Sc]
+12.5 +3.2 53 +11 +13 1009.8 993.1
09 19.05 С 3
{10}
10 км 6/6 600 м
[Sc]
+11.5 -1.1 42 +10 +15 1010.8 994.1
12 19.05 С 2 10 км 4/4 600 м
[Cu hum]
+12.5 -2.4 35 +12 +18 1011.2 994.5
15 19.05 СЗ 2
{10}
10 км 3/3 600 м
[Sc]
+11.1 -2.8 38 +10 +11 1012.6 995.8 +13.8
18 19.05 С 1 10 км ясно +7.5 -1.5 53 +7 +7 1014.7 997.7
21 19.05 С 1 10 км ясно +6.0 -1.6 58 +5 +5 1015.4 998.2
00 20.05 СЗ 1 10 км ясно +4.5 -1.1 67 +4 +4 1016.6 999.3
03 20.05 З 2 10 км 3/0
[Ac trans]
+6.3 +0.1 64 +4 +6 1017.2 1000.1 +3.6
06 20.05 СЗ 2 10 км 9/9 600 м
[Sc diur, vesp]
+9.0 -0.3 52 +8 +9 1017.3 1000.3
09 20.05 СЗ 3 10 км 10/6 600 м
[Sc diur, vesp Ac trans]
+10.2 -0.3 48 +9 +11 1017.0 1000.1
12 20.05 С 2
{10}
10 км 8/8 600 м
[Sc]
+10.7 -1.1 44 +10 +12 1017.3 1000.4
15 20.05 СЗ 1 10 км 8/8 600 м
[Sc]
+10.8 -0.9 44 +11 +11 1017.0 1000.1 +11.3
18 20.05 З 1 10 км 4/4 600 м
[Sc]
+7.2 +0.8 64 +7 +7 1018.5 1001.3
21 20.05 З 1 10 км 3/3 600 м
[Sc]
+4.9 +1.5 79 +4 +4 1018.9 1001.6
00 21.05 штиль 0 10 км ясно +3.2 +0.8 84 +2 +2 1019.1 1001.7
03 21.05 З 1 10 км 3/0
[Ac trans]
+8.0 +3.7 74 +7 +10 1020.1 1003.0 +2.3
06 21.05 СЗ 2 10 км 8/8 300 м
[Cb cap]
+13.3 +1.7 45 +13 +15 1020.0 1003.2
09 21.05 СЗ 2 10 км 8/8 600 м
[Cu Sc]
+14.9 -1.5 32 +15 +18 1019.5 1002.8
12 21.05 З 3
{11}
10 км 8/8 600 м
[Sc]
+16.0 -2.6 28 +16 +17 1018.9 1002.3
15 21.05 З 2 10 км 3/3 600 м
[Sc]
+16.8 -1.5 29 +17 +18 1018.3 1001.7 +17.2
18 21.05 штиль 0 10 км 3/0
[Ac trans]
+9.6 +0.6 53 +9 +9 1018.6 1001.6
21 21.05 штиль 0 10 км 3/0
[Ac trans]
+6.7 +1.3 68 +6 +6 1018.9 1001.7
00 22.05 штиль 0 10 км 6/0
[Ac trans]
+7.8 +2.7 70 +7 +7 1018.2 1001.1
03 22.05 З 1 10 км 9/8 600 м
[Sc Ac trans]
+10.5 +4.9 68 +10 +11 1017.6 1000.7 +6.7
06 22.05 З 1 10 км 10/8 600 м
[Cb cap Ac und]
+13.9 +3.6 50 +14 +15 1017.0 1000.3
09 22.05 В 2 10 км {ливн. осадки} 10/8 600 м
[Cb cap Ac und]
+13.6 +5.2 57 +13 +14 1016.9 1000.2
12 22.05 В 3 10 км {ливн. осадки} 10/8 600 м
[Cb cap Ac und]
+13.7 +7.1 64 +13 +13 1014.4 997.8
15 22.05 В 2 10 км 9/8 600 м
[Cb cap Ac trans]
+13.6 +6.9 64 +13 +13 1013.6 996.9 +15.6 0.0
18 22.05 штиль 0 10 км {ливн. осадки} 10/8 600 м
[Cb cap Ac und]
+13.0 +10.5 85 +13 +13 1012.5 995.9
21 22.05 Ю 1 10 км 8/6 600 м
[Sc diur, vesp Ac trans]
+13.7 +10.2 79 +14 +14 1011.6 995.0
00 23.05 З 1 10 км 9/3 600 м
[Sc Ac trans]
+12.2 +9.2 82 +12 +12 1010.5 993.8
03 23.05 З 2 10 км 6/0 600 м
[Ac trans Ci fib]
+13.2 +8.0 71 +13 +15 1010.0 993.4 +11.0 0.3
06 23.05 ЮЗ 3 10 км 6/0
[Ac trans Ci fib]
+18.9 +9.2 53 +20 +27 1009.3 993.0
09 23.05 З 3 10 км 6/3 600 м
[Cu hum Ac trans Ci fib]
+22.8 +5.5 33 +23 +31 комфорт 1007.7 991.6
12 23.05 ЮЗ 4
{10}
10 км 3/0
[Ac trans Ci fib]
+23.5 +2.2 25 +23 +29 комфорт 1005.5 989.5
15 23.05 ЮЗ 3-10
{11}
10 км 3/0
[Ci fib]
+22.5 +0.6 23 +22 +23 комфорт 1004.4 988.4 +23.9
18 23.05 ЮЗ 2
{10}
10 км 3/0
[Ac trans]
+19.2 +4.1 37 +20 +20 1004.0 987.8
21 23.05 ЮЗ 3 10 км ясно +17.9 +9.1 56 +18 +18 1003.1 986.9
00 24.05 З 2 10 км 6/0
[Ac trans]
+15.9 +9.2 64 +16 +16 1002.4 986.1
03 24.05 З 2 10 км 8/4 600 м
[Cb calv Ac trans Ci fib]
+14.8 +9.8 72 +15 +16 1002.7 986.3 +14.6
06 24.05 С 2 10 км слаб. ливневой дождь 10/10 600 м
[Cb calv]
+11.2 +9.3 88 +10 +10 1005.4 988.7 +10.8
09 24.05 С 3 10 км {ливн. осадки} 10/8 600 м
[Sc diur, vesp Ac trans]
+11.2 +6.4 72 +9 +11 1008.5 991.8
12 24.05 С 2 10 км {ливн. осадки} 6/6 600 м
[Sc]
+13.2 +2.9 50 +13 +17 1010.3 993.7
15 24.05 С 2 10 км 3/0
[Ci fib]
+12.1 -0.6 41 +12 +13 1012.5 995.8 +15.0 0.5
18 24.05 СВ 1 10 км ясно +8.6 -0.8 52 +8 +8 1015.7 998.7
21 24.05 СВ 2 10 км ясно +7.7 -3.1 46 +6 +6 1017.8 1000.7
00 25.05 З 1 10 км ясно +5.1 -1.9 61 +4 +4 1019.5 1002.2
03 25.05 СВ 2 10 км 3/0
[Ci fib]
+8.0 -2.3 48 +7 +9 1020.7 1003.6 +4.7
06 25.05 ЮВ 2 10 км 3/0
[Ci fib]
+10.9 -2.6 39 +10 +21 опасность
простуды
1021.5 1004.5

 

Местоположение метеостанции Самара (Самарская область, Россия): широта 53.25 долгота 50.22 высота над уровнем моря 139 м.

В архиве по умолчанию представлена погода в Самаре за последнюю неделю. Архивные данные за месяц целиком и за предыдущие месяцы, начиная с января 2011 года, Вы можете получить, выбрав интересующий диапазон дат из раскрывающегося списка и нажав кнопку "Ввод!".


*Определитесь, кто Вы:
робот инопланетянин человек

Внимание! Время в таблицах - всемирное. Для получения местного времени необходимо прибавить поправку, которая равна 4 ч.

Смотрите также архив погоды в соседних городах и на ближайших метеорологических станциях:

Погода в Самаре АМС (Самарская область, Россия) (7 км)
Погода в Самаре-Центр (Самарская область, Россия) (8 км)
Погода в Курумоче (Самарская область, Россия) (28 км)
Погода в Аглосе (Самарская область, Россия) (32 км)
Погода в Чапаевске (Самарская область, Россия) (43 км)
Погода в Красносамарском (Самарская область, Россия) (46 км)
Погода в Тольятти (дамба) (Самарская область, Россия) (55 км)
Погода в Безенчуке (Самарская область, Россия) (61 км)
Погода в Тольятти (Самарская область, Россия) (69 км)
Погода в Богатом (Самарская область, Россия) (73 км)

Пояснения к столбцам:

Ветер - указаны скорость ветра в м/с - средняя за 10 мин, порывы в срок и между сроками (в фигурных скобках) и направление, откуда дует ветер: С - северный, СВ - северо-восточный, В - восточный, ЮВ - юго-восточный, Ю - южный, ЮЗ - юго-западный, З - западный, СЗ - северо-западный.
Видимость - горизонтальная дальность видимости в метрах или километрах. При видимости от 1 до 10 км при отсутствии осадков обычно наблюдается дымка, при ухудшении видимости до 1 км и менее - туман. В сухую погоду видимость может ухудшаться дымом, пылью или мглою.
Явления - указаны атмосферные явления, наблюдавшиеся в срок или в последний час перед сроком; фигурными скобками обозначены явления, наблюдавшиеся между сроками (за 1-3 часа до срока); квадратными скобками обозначены град или гололедные отложения с указанием их диаметра в мм.
Облачность - указаны через наклонную черту общая и нижняя облачность в баллах и высота нижней границы облаков в метрах; квадратными скобками обозначены формы облаков: Ci - перистые, Cs - перисто-слоистые, Cc - перисто-кучевые, Ac - высококучевые, As - высокослоистые, Sc - слоисто-кучевые, Ns - слоисто-дождевые, Cu - кучевые, Cb - кучево-дождевые. Подробнее классификацию облаков см. в Атласе облаков (PDF).
T - Температура воздуха - температура, измеренная на высоте 2 м над землей.
Td - Температура точки росы - температура, при понижении до которой содержащийся в воздухе водяной пар достигнет насыщения.
f - Относительная влажность воздуха - влажноcть воздуха, измеренная на высоте 2 м над землей.
Te - Эффективная температура - температура, которую ощущает одетый по сезону человек в тени. Характеристика душности погоды. При расчете учитывается влияние влажности воздуха и скорости ветра на теплоощущения человека.
Tes - Эффективная температура на солнце - температура, которую ощущает человек, с поправкой на солнечный нагрев. Характеристика знойности погоды. Зависит от высоты солнца над горизонтом, облачности и скорости ветра. Ночью, в пасмурную погоду, а также при ветре 12 м/с и более поправка равна нулю.
P - Атмосферное давление - приведенное к уровню моря атмосферное давление.
Po - Атмосферное давление - измеренное на уровне метеостанции атмосферное давление.
Tmin - Минимальная температура - минимум температуры воздуха на высоте 2 м над землей.
Tmax - Максимальная температура - максимум температуры воздуха на высоте 2 м над землей.
R - Количество осадков - Количество выпавших осадков за период времени, мм. При наведении курсора мыши на число - период времени, за который выпало указанное количество осадков.
R24 - Количество осадков - Количество выпавших осадков за 24 часа, мм.
S - Снежный покров - Высота снежного покрова, см. При наведении курсора мыши на число - состояние снежного покрова и степень покрытия местности в баллах.